Time,TemperatureF,DewpointF,PressureIn,WindDirection,WindDirectionDegrees,WindSpeedMPH,WindSpeedGustMPH,Humidity,HourlyPrecipIn,Conditions,Clouds,dailyrainin,SoftwareType,DateUTC
2013-02-01 00:03:00,67.0,55.0,30.14,East,85,14.0,22.0,65,0.00,,,0.00,,2013-02-01 05:03:00,
2013-02-01 00:12:00,67.0,55.0,30.14,East,85,14.0,22.0,65,0.00,,,0.00,,2013-02-01 05:12:00,
2013-02-01 00:22:00,67.0,54.0,30.14,NE,53,11.0,19.0,64,0.00,,,0.00,,2013-02-01 05:22:00,
2013-02-01 00:32:00,67.0,55.0,30.14,NE,42,11.0,17.0,65,0.00,,,0.00,,2013-02-01 05:32:00,
2013-02-01 00:42:00,67.0,55.0,30.14,NE,42,11.0,17.0,65,0.00,,,0.00,,2013-02-01 05:42:00,
2013-02-01 00:52:00,67.0,56.0,30.14,NE,56,14.0,20.0,67,0.00,,,0.00,,2013-02-01 05:52:00,
2013-02-01 01:02:00,67.0,55.0,30.14,NE,56,17.0,21.0,66,0.00,,,0.00,,2013-02-01 06:02:00,
2013-02-01 01:11:00,67.0,55.0,30.14,NE,56,17.0,21.0,66,0.00,,,0.00,,2013-02-01 06:11:00,
2013-02-01 01:22:00,66.0,53.0,30.13,NE,54,12.0,19.0,64,0.00,,,0.00,,2013-02-01 06:22:00,
2013-02-01 01:32:00,66.0,52.0,30.14,NE,43,15.0,22.0,60,0.00,,,0.00,,2013-02-01 06:32:00,
2013-02-01 01:42:00,66.0,52.0,30.14,NE,43,15.0,22.0,60,0.00,,,0.00,,2013-02-01 06:42:00,
2013-02-01 01:52:00,66.0,52.0,30.13,ENE,73,13.0,22.0,60,0.00,,,0.00,,2013-02-01 06:52:00,
2013-02-01 02:02:00,66.0,53.0,30.13,NE,34,14.0,21.0,63,0.00,,,0.00,,2013-02-01 07:02:00,
2013-02-01 02:12:00,65.0,53.0,30.14,ENE,57,15.0,26.0,65,0.00,,,0.00,,2013-02-01 07:12:00,
2013-02-01 02:22:00,65.0,53.0,30.14,ENE,57,15.0,26.0,65,0.00,,,0.00,,2013-02-01 07:22:00,
2013-02-01 02:32:00,64.0,52.0,30.14,NNE,33,16.0,23.0,65,0.00,,,0.00,,2013-02-01 07:32:00,
2013-02-01 02:42:00,64.0,52.0,30.14,NNE,33,16.0,23.0,65,0.00,,,0.00,,2013-02-01 07:42:00,
2013-02-01 02:52:00,63.0,51.0,30.14,NNE,21,17.0,24.0,66,0.00,,,0.00,,2013-02-01 07:52:00,
2013-02-01 03:01:00,63.0,51.0,30.14,NE,38,17.0,23.0,65,0.00,,,0.00,,2013-02-01 08:01:00,
2013-02-01 03:11:00,63.0,51.0,30.14,NE,38,17.0,23.0,65,0.00,,,0.00,,2013-02-01 08:11:00,
2013-02-01 03:21:00,63.0,51.0,30.14,NE,44,14.0,23.0,65,0.00,,,0.00,,2013-02-01 08:21:00,
2013-02-01 03:32:00,62.0,49.0,30.14,ENE,59,15.0,23.0,63,0.00,,,0.00,,2013-02-01 08:32:00,
2013-02-01 03:42:00,62.0,49.0,30.14,ENE,59,15.0,23.0,63,0.00,,,0.00,,2013-02-01 08:42:00,
2013-02-01 03:52:00,62.0,49.0,30.14,NE,52,17.0,23.0,62,0.00,,,0.00,,2013-02-01 08:52:00,
2013-02-01 04:01:00,62.0,48.0,30.14,NE,55,18.0,24.0,60,0.00,,,0.00,,2013-02-01 09:01:00,
2013-02-01 04:11:00,62.0,48.0,30.14,NE,55,18.0,24.0,60,0.00,,,0.00,,2013-02-01 09:11:00,
2013-02-01 04:21:00,62.0,50.0,30.14,NE,49,15.0,24.0,64,0.00,,,0.00,,2013-02-01 09:21:00,
2013-02-01 04:32:00,62.0,49.0,30.13,NE,42,19.0,25.0,63,0.00,,,0.00,,2013-02-01 09:32:00,
2013-02-01 04:42:00,62.0,49.0,30.13,NE,42,19.0,25.0,63,0.00,,,0.00,,2013-02-01 09:42:00,
2013-02-01 04:52:00,61.0,48.0,30.12,ENE,59,20.0,25.0,63,0.00,,,0.00,,2013-02-01 09:52:00,
2013-02-01 05:01:00,61.0,49.0,30.12,NE,46,18.0,25.0,65,0.00,,,0.00,,2013-02-01 10:01:00,
2013-02-01 05:11:00,61.0,49.0,30.12,NE,46,18.0,25.0,65,0.00,,,0.00,,2013-02-01 10:11:00,
2013-02-01 05:21:00,60.0,48.0,30.13,NE,36,16.0,28.0,65,0.00,,,0.00,,2013-02-01 10:21:00,
2013-02-01 05:32:00,61.0,50.0,30.13,ENE,65,16.0,28.0,68,0.00,,,0.00,,2013-02-01 10:32:00,
2013-02-01 05:42:00,61.0,50.0,30.13,ENE,65,16.0,28.0,68,0.00,,,0.00,,2013-02-01 10:42:00,
2013-02-01 05:53:00,61.0,50.0,30.13,ENE,64,21.0,28.0,67,0.00,,,0.00,,2013-02-01 10:53:00,
2013-02-01 06:02:00,61.0,50.0,30.14,NE,35,19.0,26.0,68,0.00,,,0.00,,2013-02-01 11:02:00,
2013-02-01 06:11:00,61.0,50.0,30.14,NE,35,19.0,26.0,68,0.00,,,0.00,,2013-02-01 11:11:00,
2013-02-01 06:22:00,60.0,50.0,30.14,ENE,59,16.0,28.0,69,0.00,,,0.00,,2013-02-01 11:22:00,
2013-02-01 06:32:00,61.0,51.0,30.15,NE,51,19.0,28.0,70,0.00,,,0.00,,2013-02-01 11:32:00,
2013-02-01 06:42:00,61.0,51.0,30.15,NE,51,19.0,28.0,70,0.00,,,0.00,,2013-02-01 11:42:00,
2013-02-01 06:53:00,60.0,50.0,30.15,NE,54,21.0,28.0,70,0.00,,,0.00,,2013-02-01 11:53:00,
2013-02-01 07:03:00,60.0,50.0,30.17,NE,46,24.0,31.0,69,0.00,,,0.00,,2013-02-01 12:03:00,
2013-02-01 07:12:00,60.0,50.0,30.17,NE,46,24.0,31.0,69,0.00,,,0.00,,2013-02-01 12:12:00,
2013-02-01 07:23:00,60.0,49.0,30.17,NE,53,22.0,31.0,67,0.00,,,0.00,,2013-02-01 12:23:00,
2013-02-01 07:32:00,60.0,50.0,30.17,NE,54,15.0,28.0,69,0.00,,,0.00,,2013-02-01 12:32:00,
2013-02-01 07:42:00,60.0,50.0,30.17,NE,54,15.0,28.0,69,0.00,,,0.00,,2013-02-01 12:42:00,
2013-02-01 07:52:00,61.0,51.0,30.18,NE,54,24.0,29.0,70,0.00,,,0.00,,2013-02-01 12:52:00,
2013-02-01 08:02:00,61.0,51.0,30.18,NE,50,24.0,30.0,69,0.00,,,0.00,,2013-02-01 13:02:00,
2013-02-01 08:11:00,61.0,51.0,30.18,NE,50,24.0,30.0,69,0.00,,,0.00,,2013-02-01 13:11:00,
2013-02-01 08:22:00,60.0,49.0,30.19,NE,40,22.0,32.0,67,0.00,,,0.00,,2013-02-01 13:22:00,
2013-02-01 08:33:00,60.0,49.0,30.19,North,11,18.0,31.0,67,0.00,,,0.00,,2013-02-01 13:33:00,
2013-02-01 08:42:00,60.0,49.0,30.19,North,11,18.0,31.0,67,0.00,,,0.00,,2013-02-01 13:42:00,
2013-02-01 08:53:00,60.0,49.0,30.19,ENE,60,21.0,29.0,68,0.00,,,0.00,,2013-02-01 13:53:00,
2013-02-01 09:03:00,61.0,50.0,30.20,NE,41,21.0,30.0,68,0.00,,,0.00,,2013-02-01 14:03:00,
2013-02-01 09:11:00,61.0,51.0,30.21,ENE,72,17.0,29.0,69,0.00,,,0.00,,2013-02-01 14:11:00,
2013-02-01 09:22:00,61.0,51.0,30.21,ENE,72,17.0,29.0,69,0.00,,,0.00,,2013-02-01 14:22:00,
2013-02-01 09:32:00,61.0,51.0,30.21,NE,53,18.0,31.0,69,0.00,,,0.00,,2013-02-01 14:32:00,
2013-02-01 09:42:00,61.0,51.0,30.21,NE,53,18.0,31.0,69,0.00,,,0.00,,2013-02-01 14:42:00,
2013-02-01 09:53:00,62.0,51.0,30.22,NE,48,19.0,29.0,68,0.00,,,0.00,,2013-02-01 14:53:00,
2013-02-01 10:02:00,63.0,52.0,30.22,ENE,76,19.0,27.0,68,0.00,,,0.00,,2013-02-01 15:02:00,
2013-02-01 10:12:00,63.0,53.0,30.22,NE,56,16.0,26.0,69,0.00,,,0.00,,2013-02-01 15:12:00,
2013-02-01 10:22:00,63.0,53.0,30.22,NE,56,16.0,26.0,69,0.00,,,0.00,,2013-02-01 15:22:00,
2013-02-01 10:33:00,64.0,54.0,30.22,NE,46,19.0,26.0,69,0.00,,,0.00,,2013-02-01 15:33:00,
2013-02-01 10:42:00,64.0,54.0,30.22,NE,46,19.0,26.0,69,0.00,,,0.00,,2013-02-01 15:42:00,
2013-02-01 10:52:00,64.0,53.0,30.24,NNE,29,17.0,27.0,68,0.00,,,0.00,,2013-02-01 15:52:00,
2013-02-01 11:03:00,65.0,53.0,30.21,ENE,61,16.0,25.0,66,0.00,,,0.00,,2013-02-01 16:03:00,
2013-02-01 11:11:00,66.0,53.0,30.23,NE,43,19.0,26.0,63,0.00,,,0.00,,2013-02-01 16:11:00,
2013-02-01 11:22:00,66.0,53.0,30.23,NE,43,19.0,26.0,63,0.00,,,0.00,,2013-02-01 16:22:00,
2013-02-01 11:33:00,67.0,54.0,30.23,NE,50,18.0,25.0,62,0.00,,,0.00,,2013-02-01 16:33:00,
2013-02-01 11:43:00,67.0,54.0,30.22,ENE,62,15.0,23.0,64,0.00,,,0.00,,2013-02-01 16:43:00,
2013-02-01 11:52:00,67.0,54.0,30.22,ENE,62,15.0,23.0,64,0.00,,,0.00,,2013-02-01 16:52:00,
2013-02-01 12:02:00,67.0,54.0,30.22,ENE,71,15.0,26.0,64,0.00,,,0.00,,2013-02-01 17:02:00,
2013-02-01 12:12:00,69.0,56.0,30.22,NE,36,17.0,24.0,63,0.00,,,0.00,,2013-02-01 17:12:00,
2013-02-01 12:22:00,69.0,56.0,30.22,NE,36,17.0,24.0,63,0.00,,,0.00,,2013-02-01 17:22:00,
2013-02-01 12:32:00,69.0,55.0,30.22,ENE,65,17.0,26.0,62,0.00,,,0.00,,2013-02-01 17:32:00,
2013-02-01 12:42:00,69.0,55.0,30.22,ENE,65,17.0,26.0,62,0.00,,,0.00,,2013-02-01 17:42:00,
2013-02-01 12:53:00,69.0,56.0,30.21,ENE,68,20.0,28.0,64,0.00,,,0.00,,2013-02-01 17:53:00,
2013-02-01 13:03:00,69.0,57.0,30.21,NE,46,15.0,26.0,65,0.00,,,0.00,,2013-02-01 18:03:00,
2013-02-01 13:12:00,69.0,57.0,30.21,NE,46,15.0,26.0,65,0.00,,,0.00,,2013-02-01 18:12:00,
2013-02-01 13:22:00,70.0,56.0,30.19,ENE,67,14.0,24.0,62,0.00,,,0.00,,2013-02-01 18:22:00,
2013-02-01 13:32:00,70.0,58.0,30.19,ENE,63,12.0,23.0,65,0.00,,,0.00,,2013-02-01 18:32:00,
2013-02-01 13:42:00,70.0,58.0,30.19,ENE,63,12.0,23.0,65,0.00,,,0.00,,2013-02-01 18:42:00,
2013-02-01 13:53:00,73.0,60.0,30.19,ENE,78,16.0,25.0,64,0.00,,,0.00,,2013-02-01 18:53:00,
2013-02-01 14:03:00,71.0,58.0,30.18,East,82,17.0,24.0,64,0.00,,,0.00,,2013-02-01 19:03:00,
2013-02-01 14:12:00,71.0,58.0,30.18,East,82,17.0,24.0,64,0.00,,,0.00,,2013-02-01 19:12:00,
2013-02-01 14:21:00,71.0,59.0,30.19,East,90,17.0,24.0,65,0.00,,,0.00,,2013-02-01 19:21:00,
2013-02-01 14:32:00,71.0,58.0,30.18,East,96,20.0,27.0,64,0.00,,,0.00,,2013-02-01 19:32:00,
2013-02-01 14:42:00,71.0,58.0,30.18,East,96,20.0,27.0,64,0.00,,,0.00,,2013-02-01 19:42:00,
2013-02-01 14:52:00,71.0,59.0,30.18,East,79,16.0,26.0,66,0.00,,,0.00,,2013-02-01 19:52:00,
2013-02-01 15:02:00,71.0,59.0,30.17,ENE,75,17.0,26.0,65,0.00,,,0.00,,2013-02-01 20:02:00,
2013-02-01 15:11:00,72.0,58.0,30.17,ESE,105,19.0,25.0,62,0.00,,,0.00,,2013-02-01 20:11:00,
2013-02-01 15:21:00,72.0,58.0,30.17,ESE,105,19.0,25.0,62,0.00,,,0.00,,2013-02-01 20:21:00,
2013-02-01 15:32:00,72.0,57.0,30.16,East,99,19.0,25.0,60,0.00,,,0.00,,2013-02-01 20:32:00,
2013-02-01 15:42:00,71.0,58.0,30.16,East,86,20.0,26.0,64,0.00,,,0.00,,2013-02-01 20:42:00,
2013-02-01 15:52:00,71.0,58.0,30.16,East,86,20.0,26.0,64,0.00,,,0.00,,2013-02-01 20:52:00,
2013-02-01 16:02:00,71.0,59.0,30.16,East,92,20.0,26.0,65,0.00,,,0.00,,2013-02-01 21:02:00,
2013-02-01 16:12:00,71.0,59.0,30.16,East,92,20.0,26.0,65,0.00,,,0.00,,2013-02-01 21:12:00,
2013-02-01 16:22:00,71.0,58.0,30.16,ESE,123,19.0,27.0,64,0.00,,,0.00,,2013-02-01 21:22:00,
2013-02-01 16:32:00,71.0,55.0,30.16,East,95,22.0,28.0,58,0.00,,,0.00,,2013-02-01 21:32:00,
2013-02-01 16:42:00,71.0,55.0,30.16,East,95,22.0,28.0,58,0.00,,,0.00,,2013-02-01 21:42:00,
2013-02-01 16:52:00,71.0,58.0,30.16,ESE,105,20.0,25.0,63,0.00,,,0.00,,2013-02-01 21:52:00,
2013-02-01 17:02:00,70.0,56.0,30.17,East,86,19.0,26.0,61,0.00,,,0.00,,2013-02-01 22:02:00,
2013-02-01 17:11:00,70.0,56.0,30.17,East,86,19.0,26.0,61,0.00,,,0.00,,2013-02-01 22:11:00,
2013-02-01 17:21:00,70.0,55.0,30.17,East,81,19.0,27.0,59,0.00,,,0.00,,2013-02-01 22:21:00,
2013-02-01 17:32:00,70.0,57.0,30.17,ESE,121,20.0,27.0,64,0.00,,,0.00,,2013-02-01 22:32:00,
2013-02-01 17:42:00,70.0,57.0,30.17,ESE,121,20.0,27.0,64,0.00,,,0.00,,2013-02-01 22:42:00,
2013-02-01 17:52:00,70.0,59.0,30.17,East,83,19.0,28.0,69,0.00,,,0.00,,2013-02-01 22:52:00,
2013-02-01 18:01:00,70.0,60.0,30.17,East,98,19.0,27.0,70,0.00,,,0.00,,2013-02-01 23:01:00,
2013-02-01 18:11:00,70.0,60.0,30.17,East,98,19.0,27.0,70,0.00,,,0.00,,2013-02-01 23:11:00,
2013-02-01 18:22:00,69.0,59.0,30.18,ENE,63,20.0,28.0,71,0.00,,,0.00,,2013-02-01 23:22:00,
2013-02-01 18:32:00,69.0,59.0,30.19,East,98,20.0,28.0,71,0.00,,,0.00,,2013-02-01 23:32:00,
2013-02-01 18:42:00,69.0,59.0,30.19,East,98,20.0,28.0,71,0.00,,,0.00,,2013-02-01 23:42:00,
2013-02-01 18:52:00,69.0,59.0,30.18,East,81,17.0,27.0,71,0.00,,,0.00,,2013-02-01 23:52:00,
2013-02-01 19:02:00,69.0,59.0,30.19,East,101,20.0,27.0,70,0.00,,,0.00,,2013-02-02 00:02:00,
2013-02-01 19:11:00,69.0,59.0,30.19,East,101,20.0,27.0,70,0.00,,,0.00,,2013-02-02 00:11:00,
2013-02-01 19:21:00,69.0,58.0,30.19,ESE,105,17.0,26.0,69,0.00,,,0.00,,2013-02-02 00:21:00,
2013-02-01 19:32:00,69.0,58.0,30.19,East,92,18.0,27.0,69,0.00,,,0.00,,2013-02-02 00:32:00,
2013-02-01 19:42:00,69.0,58.0,30.19,East,92,18.0,27.0,69,0.00,,,0.00,,2013-02-02 00:42:00,
2013-02-01 19:52:00,69.0,58.0,30.19,East,81,19.0,29.0,68,0.00,,,0.00,,2013-02-02 00:52:00,
2013-02-01 20:02:00,69.0,58.0,30.20,East,83,18.0,28.0,68,0.00,,,0.00,,2013-02-02 01:02:00,
2013-02-01 20:11:00,69.0,58.0,30.20,East,83,18.0,28.0,68,0.00,,,0.00,,2013-02-02 01:11:00,
2013-02-01 20:21:00,68.0,57.0,30.20,East,100,18.0,26.0,68,0.00,,,0.00,,2013-02-02 01:21:00,
2013-02-01 20:32:00,68.0,56.0,30.20,East,86,20.0,26.0,66,0.00,,,0.00,,2013-02-02 01:32:00,
2013-02-01 20:42:00,68.0,56.0,30.20,East,86,20.0,26.0,66,0.00,,,0.00,,2013-02-02 01:42:00,
2013-02-01 20:52:00,68.0,57.0,30.19,East,84,18.0,25.0,67,0.00,,,0.00,,2013-02-02 01:52:00,
2013-02-01 21:01:00,68.0,57.0,30.20,East,96,16.0,26.0,68,0.00,,,0.00,,2013-02-02 02:01:00,
2013-02-01 21:11:00,68.0,57.0,30.20,East,96,16.0,26.0,68,0.00,,,0.00,,2013-02-02 02:11:00,
2013-02-01 21:22:00,68.0,58.0,30.20,East,100,17.0,24.0,70,0.00,,,0.00,,2013-02-02 02:22:00,
2013-02-01 21:32:00,68.0,57.0,30.20,East,101,18.0,24.0,68,0.00,,,0.00,,2013-02-02 02:32:00,
2013-02-01 21:42:00,68.0,57.0,30.20,East,101,18.0,24.0,68,0.00,,,0.00,,2013-02-02 02:42:00,
2013-02-01 21:52:00,68.0,57.0,30.21,ESE,105,17.0,23.0,69,0.00,,,0.00,,2013-02-02 02:52:00,
2013-02-01 22:02:00,68.0,57.0,30.21,East,95,17.0,23.0,69,0.00,,,0.00,,2013-02-02 03:02:00,
2013-02-01 22:11:00,68.0,57.0,30.21,ENE,77,15.0,24.0,69,0.00,,,0.00,,2013-02-02 03:11:00,
2013-02-01 22:22:00,68.0,57.0,30.21,ENE,77,15.0,24.0,69,0.00,,,0.00,,2013-02-02 03:22:00,
2013-02-01 22:32:00,68.0,57.0,30.21,East,96,17.0,23.0,68,0.00,,,0.00,,2013-02-02 03:32:00,
2013-02-01 22:42:00,68.0,57.0,30.21,ESE,110,17.0,22.0,69,0.00,,,0.00,,2013-02-02 03:42:00,
2013-02-01 22:52:00,68.0,57.0,30.21,ESE,110,17.0,22.0,69,0.00,,,0.00,,2013-02-02 03:52:00,
2013-02-01 23:02:00,68.0,57.0,30.21,East,81,17.0,21.0,69,0.00,,,0.00,,2013-02-02 04:02:00,
2013-02-01 23:11:00,68.0,57.0,30.21,East,81,17.0,21.0,69,0.00,,,0.00,,2013-02-02 04:11:00,
2013-02-01 23:22:00,68.0,57.0,30.21,ESE,105,16.0,23.0,69,0.00,,,0.00,,2013-02-02 04:22:00,
2013-02-01 23:32:00,68.0,57.0,30.21,East,97,16.0,24.0,68,0.00,,,0.00,,2013-02-02 04:32:00,
2013-02-01 23:42:00,68.0,57.0,30.21,East,97,16.0,24.0,68,0.00,,,0.00,,2013-02-02 04:42:00,
2013-02-01 23:52:00,68.0,57.0,30.19,East,97,17.0,23.0,68,0.00,,,0.00,,2013-02-02 04:52:00,